Deering Airport


Codes: PADE/DRG
Name: Deering Airport
City: Deering
Country: United States
Elevation: 21 ft.
Wikipedia:

Photos at Deering Airport


   Photos courtesy of SpottingLog. You can add your own sightings and photos by signing up for a free trial today.



No photos found.

Weather at Deering Airport


Time (UTC)DescriptionTempratureWindCloud coverageVisibilityPressureHumidity
18-Apr-2024 00:00Overcast Clouds1°C4 mph, E100%8484m1020hPa95%
18-Apr-2024 03:00Overcast Clouds1°C4 mph, NE100%10000m1020hPa94%
18-Apr-2024 06:00Overcast Clouds-0°C7 mph, NE100%10000m1018hPa96%
18-Apr-2024 09:00Overcast Clouds-2°C7 mph, E100%869m1017hPa98%
18-Apr-2024 12:00Light Snow0°C11 mph, E100%10000m1016hPa96%
18-Apr-2024 15:00Light Snow-1°C9 mph, SE100%10000m1016hPa95%
18-Apr-2024 18:00Overcast Clouds1°C11 mph, SE100%10000m1017hPa97%
18-Apr-2024 21:00Overcast Clouds2°C13 mph, SE100%6766m1017hPa97%
19-Apr-2024 00:00Overcast Clouds2°C7 mph, E100%6726m1017hPa97%
19-Apr-2024 03:00Overcast Clouds1°C7 mph, SE100%5423m1018hPa99%
19-Apr-2024 06:00Overcast Clouds-0°C7 mph, SE100%10000m1018hPa98%
19-Apr-2024 09:00Overcast Clouds0°C7 mph, SE100%8216m1019hPa97%
19-Apr-2024 12:00Overcast Clouds0°C7 mph, S100%7770m1019hPa97%
19-Apr-2024 15:00Overcast Clouds-1°C4 mph, NW100%8309m1020hPa98%
19-Apr-2024 18:00Overcast Clouds-4°C7 mph, NW100%7631m1022hPa96%
19-Apr-2024 21:00Overcast Clouds-3°C7 mph, NW100%10000m1022hPa94%
20-Apr-2024 00:00Overcast Clouds-2°C7 mph, NW100%10000m1022hPa93%
20-Apr-2024 03:00Overcast Clouds-2°C7 mph, NW100%9345m1022hPa92%
20-Apr-2024 06:00Overcast Clouds-3°C9 mph, NW100%10000m1022hPa92%
20-Apr-2024 09:00Overcast Clouds-5°C9 mph, NW100%10000m1022hPa90%
20-Apr-2024 12:00Overcast Clouds-8°C7 mph, W99%10000m1022hPa92%
20-Apr-2024 15:00Overcast Clouds-11°C7 mph, W90%10000m1021hPa94%
20-Apr-2024 18:00Broken Clouds-10°C7 mph, W79%10000m1021hPa91%
20-Apr-2024 21:00Overcast Clouds-7°C7 mph, NW87%10000m1020hPa89%
21-Apr-2024 00:00Overcast Clouds-5°C9 mph, NW93%10000m1019hPa90%
21-Apr-2024 03:00Overcast Clouds-4°C9 mph, NW100%10000m1018hPa89%
21-Apr-2024 06:00Overcast Clouds-5°C7 mph, W100%10000m1018hPa93%
21-Apr-2024 09:00Overcast Clouds-7°C7 mph, W97%10000m1018hPa95%
21-Apr-2024 12:00Overcast Clouds-8°C7 mph, W99%8210m1017hPa94%
21-Apr-2024 15:00Overcast Clouds-9°C7 mph, NW100%10000m1017hPa95%
21-Apr-2024 18:00Overcast Clouds-10°C4 mph, NW100%10000m1017hPa92%
21-Apr-2024 21:00Overcast Clouds-8°C4 mph, NW100%10000m1018hPa88%
22-Apr-2024 00:00Overcast Clouds-7°C4 mph, NW100%10000m1018hPa88%
22-Apr-2024 03:00Overcast Clouds-6°C2 mph, NW100%10000m1018hPa87%
22-Apr-2024 06:00Overcast Clouds-7°C2 mph, W100%10000m1019hPa93%
22-Apr-2024 09:00Overcast Clouds-9°C2 mph, SW100%10000m1019hPa95%
22-Apr-2024 12:00Overcast Clouds-9°C2 mph, SW100%10000m1020hPa94%
22-Apr-2024 15:00Overcast Clouds-9°C2 mph, W100%10000m1020hPa95%
22-Apr-2024 18:00Overcast Clouds-7°C0 mph, SE100%10000m1020hPa93%
22-Apr-2024 21:00Overcast Clouds-5°C2 mph, NE100%10000m1020hPa84%